| time (UTC) | temp F | wind direction | speed MPH | gust MPH | rain 1hr in | rain 24hr in | rain mn in | humidity % | barometer mb |
| 20260901163026 | 81 | 215 | 8.0 | 8.0 | 0.00 | 0.00 | 0.00 | 1017.5 | |
| 20260901162022 | 81 | 210 | 9.0 | 13.0 | 0.00 | 0.00 | 0.00 | 1017.6 | |
| 20260901161025 | 82 | 201 | 10.0 | 8.0 | 0.00 | 0.00 | 0.00 | 1017.7 | |
| 20260901160027 | 83 | 229 | 7.0 | 5.0 | 0.00 | 0.00 | 0.00 | 1017.3 | |
| 20260901155023 | 83 | 262 | 8.0 | 10.0 | 0.00 | 0.00 | 0.00 | 1017.5 | |
| 20260901154025 | 84 | 194 | 5.0 | 8.0 | 0.00 | 0.00 | 0.00 | 1017.4 | |
| 20260901153026 | 84 | 214 | 7.0 | 9.0 | 0.00 | 0.00 | 0.00 | 1017.6 | |
| 20260901152029 | 84 | 225 | 6.0 | 9.0 | 0.00 | 0.00 | 0.00 | 1017.7 | |
| 20260901151031 | 83 | 210 | 7.0 | 5.0 | 0.00 | 0.00 | 0.00 | 1017.6 | |
| 20260901150023 | 82 | 200 | 9.0 | 7.0 | 0.00 | 0.00 | 0.00 | 1017.5 | |
| 20260901145022 | 82 | 264 | 7.0 | 10.0 | 0.00 | 0.00 | 0.00 | 1017.8 | |
| 20260901144017 | 83 | 176 | 11.0 | 8.0 | 0.00 | 0.00 | 0.00 | 1017.7 | |
| 20260901143020 | 83 | 225 | 8.0 | 9.0 | 0.00 | 0.00 | 0.00 | 1017.6 | |
| 20260901142022 | 83 | 205 | 10.0 | 8.0 | 0.00 | 0.00 | 0.00 | 1017.6 | |
| 20260901141009 | 84 | 207 | 8.0 | 8.0 | 0.00 | 0.00 | 0.00 | 1017.6 | |
| 20260901140012 | 84 | 221 | 7.0 | 5.0 | 0.00 | 0.00 | 0.00 | 1017.5 | |
| 20260901135014 | 83 | 277 | 9.0 | 5.0 | 0.00 | 0.00 | 0.00 | 1017.6 | |
| 20260901134017 | 84 | 217 | 6.0 | 5.0 | 0.00 | 0.00 | 0.00 | 1017.8 | |
| 20260901133006 | 84 | 179 | 4.0 | 6.0 | 0.00 | 0.00 | 0.00 | 1017.9 | |
| 20260901132009 | 84 | 167 | 4.0 | 10.0 | 0.00 | 0.00 | 0.00 | 1018.0 | |
| 20260901131002 | 85 | 266 | 4.0 | 6.0 | 0.00 | 0.00 | 0.00 | 1018.3 | |
| 20260901130003 | 84 | 218 | 12.0 | 13.0 | 0.00 | 0.00 | 0.00 | 1018.4 | |
| 20260901125006 | 85 | 195 | 9.0 | 7.0 | 0.00 | 0.00 | 0.00 | 1018.4 | |
| 20260901124009 | 85 | 204 | 7.0 | 7.0 | 0.00 | 0.00 | 0.00 | 1018.5 | |
| 20260901123008 | 85 | 212 | 7.0 | 3.0 | 0.00 | 0.00 | 0.00 | 1018.5 | |
| 20260901122004 | 85 | 224 | 9.0 | 6.0 | 0.00 | 0.00 | 0.00 | 1018.5 | |
| 20260901120955 | 87 | 242 | 7.0 | 7.0 | 0.00 | 0.00 | 0.00 | 1018.7 | |
| 20260901115958 | 86 | 228 | 11.0 | 7.0 | 0.00 | 0.00 | 0.00 | 1018.6 | |
| 20260901114959 | 86 | 263 | 6.0 | 5.0 | 0.00 | 0.00 | 0.00 | 1018.7 | |
| 20260901114001 | 86 | 180 | 6.0 | 9.0 | 0.00 | 0.00 | 0.00 | 1018.7 | |
| 20260901113001 | 86 | 231 | 9.0 | 10.0 | 0.00 | 0.00 | 0.00 | 1018.8 | |
| 20260901112004 | 86 | 225 | 4.0 | 9.0 | 0.00 | 0.00 | 0.00 | 1018.9 | |
| 20260901110951 | 86 | 214 | 7.0 | 10.0 | 0.00 | 0.00 | 0.00 | 1018.9 | |
| 20260901105954 | 85 | 217 | 9.0 | 10.0 | 0.00 | 0.00 | 0.00 | 1018.9 | |
| 20260901104956 | 84 | 219 | 7.0 | 8.0 | 0.00 | 0.00 | 0.00 | 1018.9 | |
| 20260901103959 | 85 | 226 | 6.0 | 5.0 | 0.00 | 0.00 | 0.00 | 1019.0 | |
| 20260901103002 | 85 | 231 | 8.0 | 9.0 | 0.00 | 0.00 | 0.00 | 1018.9 | |
| 20260901102004 | 84 | 231 | 6.0 | 8.0 | 0.00 | 0.00 | 0.00 | 1019.1 | |
| 20260901101006 | 85 | 166 | 5.0 | 8.0 | 0.00 | 0.00 | 0.00 | 1019.2 | |
| 20260901100001 | 84 | 243 | 6.0 | 5.0 | 0.00 | 0.00 | 0.00 | 1019.3 | |
| 20260901095000 | 85 | 132 | 4.0 | 4.0 | 0.00 | 0.00 | 0.00 | 1019.1 | |
| 20260901094003 | 83 | 111 | 2.0 | 2.0 | 0.00 | 0.00 | 0.00 | 1019.2 | |
| 20260901093005 | 83 | 190 | 5.0 | 7.0 | 0.00 | 0.00 | 0.00 | 1019.1 | |
| 20260901092003 | 83 | 121 | 4.0 | 5.0 | 0.00 | 0.00 | 0.00 | 1019.0 | |
| 20260901091006 | 82 | 122 | 4.0 | 3.0 | 0.00 | 0.00 | 0.00 | 1018.9 | |
| 20260901090007 | 82 | 160 | 5.0 | 6.0 | 0.00 | 0.00 | 0.00 | 1018.8 | |
| 20260901085000 | 81 | 225 | 5.0 | 4.0 | 0.00 | 0.00 | 0.00 | 1018.7 | |
| 20260901083957 | 80 | 208 | 4.0 | 4.0 | 0.00 | 0.00 | 0.00 | 1018.7 | |
| 20260901082956 | 79 | 221 | 5.0 | 4.0 | 0.00 | 0.00 | 0.00 | 1018.7 | |
| 20260901081958 | 78 | 233 | 3.0 | 1.0 | 0.00 | 0.00 | 0.00 | 1018.5 | |
| 20260901081044 | 77 | 307 | 1.0 | 0.0 | 0.00 | 0.00 | 0.00 | 1018.6 | |
| 20260901080943 | 77 | 307 | 1.0 | 0.0 | 0.00 | 0.00 | 0.00 | 1018.6 | |
| 20260901075943 | 77 | 339 | 4.0 | 5.0 | 0.00 | 0.00 | 0.00 | 1018.8 | |
| 20260901074946 | 78 | 34 | 4.0 | 2.0 | 0.00 | 0.00 | 0.00 | 1018.7 | |
| 20260901073941 | 77 | 343 | 4.0 | 5.0 | 0.00 | 0.00 | 0.00 | 1018.7 | |
| 20260901072944 | 76 | 330 | 4.0 | 4.0 | 0.00 | 0.00 | 0.00 | 1018.8 | |
| 20260901071947 | 75 | 330 | 1.0 | 3.0 | 0.00 | 0.00 | 0.00 | 1018.8 | |
| 20260901070949 | 75 | 34 | 0.0 | 0.0 | 0.00 | 0.00 | 0.00 | 1018.7 | |
| 20260901065952 | 76 | 34 | 0.0 | 0.0 | 0.00 | 0.00 | 0.00 | 1018.8 | |
| 20260901064952 | 74 | 13 | 0.0 | 0.0 | 0.00 | 0.00 | 0.00 | 1018.9 | |
| 20260901063945 | 73 | 319 | 0.0 | 2.0 | 0.00 | 0.00 | 0.00 | 1019.1 | |
| 20260901062942 | 72 | 153 | 1.0 | 1.0 | 0.00 | 0.00 | 0.00 | 1019.0 | |
| 20260901061941 | 71 | 305 | 3.0 | 3.0 | 0.00 | 0.00 | 0.00 | 1018.9 | |
| 20260901060941 | 71 | 14 | 1.0 | 1.0 | 0.00 | 0.00 | 0.00 | 1018.9 | |
| 20260901055944 | 71 | 353 | 2.0 | 1.0 | 0.00 | 0.00 | 0.00 | 1018.7 | |
| 20260901054946 | 71 | 336 | 0.0 | 0.0 | 0.00 | 0.00 | 0.00 | 1018.5 | |
| 20260901053949 | 71 | 336 | 0.0 | 0.0 | 0.00 | 0.00 | 0.00 | 1018.5 | |
| 20260901052947 | 71 | 336 | 0.0 | 0.0 | 0.00 | 0.00 | 0.00 | 1018.6 | |
| 20260901051943 | 70 | 336 | 0.0 | 0.0 | 0.00 | 0.00 | 0.00 | 1018.7 | |
| 20260901050933 | 71 | 347 | 1.0 | 1.0 | 0.00 | 0.00 | 0.00 | 1018.7 | |
| 20260901045935 | 72 | 117 | 0.0 | 0.0 | 0.00 | 0.00 | 0.00 | 1018.8 | |
| 20260901044938 | 72 | 135 | 1.0 | 2.0 | 0.00 | 0.00 | 0.00 | 1018.8 | |
| 20260901043941 | 72 | 94 | 0.0 | 0.0 | 0.00 | 0.00 | 0.00 | 1018.6 | |
| 20260901042943 | 72 | 44 | 0.0 | 0.0 | 0.00 | 0.00 | 0.00 | 1018.8 | |
| 20260901041946 | 73 | 44 | 0.0 | 0.0 | 0.00 | 0.00 | 0.00 | 1018.9 | |
| 20260901040939 | 72 | 301 | 0.0 | 0.0 | 0.00 | 0.00 | 0.00 | 1018.9 | |
| 20260901035942 | 72 | 187 | 0.0 | 0.0 | 0.00 | 0.00 | 0.00 | 1018.9 | |
| 20260901034945 | 73 | 187 | 0.0 | 0.0 | 0.00 | 0.00 | 0.00 | 1018.8 | |
| 20260901033930 | 73 | 187 | 0.0 | 0.0 | 0.00 | 0.00 | 0.00 | 1018.9 | |
| 20260901032932 | 73 | 217 | 1.0 | 1.0 | 0.00 | 0.00 | 0.00 | 1018.8 | |
| 20260901031935 | 74 | 354 | 0.0 | 0.0 | 0.00 | 0.00 | 0.00 | 1018.9 | |
| 20260901030937 | 74 | 354 | 0.0 | 0.0 | 0.00 | 0.00 | 0.00 | 1018.9 | |
| 20260901025933 | 74 | 354 | 0.0 | 0.0 | 0.00 | 0.00 | 0.00 | 1018.9 | |
| 20260901024935 | 74 | 354 | 0.0 | 0.0 | 0.00 | 0.00 | 0.00 | 1019.0 | |
| 20260901023938 | 74 | 354 | 0.0 | 0.0 | 0.00 | 0.00 | 0.00 | 1019.1 | |
| 20260901022941 | 74 | 27 | 3.0 | 3.0 | 0.00 | 0.00 | 0.00 | 1019.2 | |
| 20260901021943 | 74 | 6 | 0.0 | 0.0 | 0.00 | 0.00 | 0.00 | 1019.3 | |
| 20260901020946 | 75 | 17 | 0.0 | 2.0 | 0.00 | 0.00 | 0.00 | 1019.3 | |
| 20260901015949 | 75 | 38 | 2.0 | 2.0 | 0.00 | 0.00 | 0.00 | 1019.4 | |
| 20260901014943 | 75 | 10 | 0.0 | 0.0 | 0.00 | 0.00 | 0.00 | 1019.5 | |
| 20260901013946 | 76 | 177 | 1.0 | 1.0 | 0.00 | 0.00 | 0.00 | 1019.7 | |
| 20260901012947 | 76 | 69 | 1.0 | 2.0 | 0.00 | 0.00 | 0.00 | 1019.6 | |
| 20260901011950 | 76 | 149 | 0.0 | 0.0 | 0.00 | 0.00 | 0.00 | 1019.6 | |
| 20260901010950 | 76 | 149 | 0.0 | 0.0 | 0.00 | 0.00 | 0.00 | 1019.7 | |
| 20260901005953 | 76 | 149 | 0.0 | 0.0 | 0.00 | 0.00 | 0.00 | 1019.7 | |
| 20260901004956 | 76 | 149 | 0.0 | 0.0 | 0.00 | 0.00 | 0.00 | 1019.8 | |
| 20260901003950 | 76 | 149 | 0.0 | 0.0 | 0.00 | 0.00 | 0.00 | 1019.9 | |
| 20260901002953 | 77 | 169 | 1.0 | 1.0 | 0.00 | 0.00 | 0.00 | 1019.8 | |
| 20260901001955 | 76 | 110 | 2.0 | 3.0 | 0.00 | 0.00 | 0.00 | 1019.9 | |
| 20260901000958 | 76 | 121 | 2.0 | 3.0 | 0.00 | 0.00 | 0.00 | 1019.9 | |
| 20260901000000 | 77 | 113 | 2.0 | 1.0 | 0.00 | 0.00 | 0.00 | 1019.8 | |
| 20260831234937 | 77 | 111 | 1.0 | 1.0 | 0.00 | 0.00 | 0.00 | 1019.9 | |
| 20260831233940 | 77 | 150 | 2.0 | 3.0 | 0.00 | 0.00 | 0.00 | 1019.9 | |
| 20260831232936 | 77 | 77 | 1.0 | 1.0 | 0.00 | 0.00 | 0.00 | 1019.8 | |
| 20260831231936 | 77 | 156 | 2.0 | 2.0 | 0.00 | 0.00 | 0.00 | 1019.8 | |
| 20260831230938 | 77 | 136 | 3.0 | 2.0 | 0.00 | 0.00 | 0.00 | 1019.7 | |
| 20260831225938 | 77 | 90 | 4.0 | 2.0 | 0.00 | 0.00 | 0.00 | 1019.6 | |
| 20260831224940 | 77 | 84 | 2.0 | 2.0 | 0.00 | 0.00 | 0.00 | 1019.6 | |
| 20260831223943 | 77 | 203 | 2.0 | 2.0 | 0.00 | 0.00 | 0.00 | 1019.6 | |
| 20260831222945 | 77 | 150 | 4.0 | 2.0 | 0.00 | 0.00 | 0.00 | 1019.5 | |
| 20260831221939 | 77 | 90 | 2.0 | 5.0 | 0.00 | 0.00 | 0.00 | 1019.5 | |
| 20260831220941 | 78 | 63 | 3.0 | 2.0 | 0.00 | 0.00 | 0.00 | 1019.5 | |
| 20260831215944 | 78 | 121 | 4.0 | 2.0 | 0.00 | 0.00 | 0.00 | 1019.5 | |
| 20260831214947 | 78 | 172 | 3.0 | 5.0 | 0.00 | 0.00 | 0.00 | 1019.4 | |
| 20260831213939 | 78 | 131 | 4.0 | 4.0 | 0.00 | 0.00 | 0.00 | 1019.4 | |
| 20260831212941 | 78 | 108 | 2.0 | 3.0 | 0.00 | 0.00 | 0.00 | 1019.3 | |
| 20260831211943 | 78 | 131 | 2.0 | 1.0 | 0.00 | 0.00 | 0.00 | 1019.3 | |
| 20260831210939 | 78 | 113 | 4.0 | 3.0 | 0.00 | 0.00 | 0.00 | 1019.3 | |
| 20260831205942 | 78 | 138 | 3.0 | 3.0 | 0.00 | 0.00 | 0.00 | 1019.2 | |
| 20260831204944 | 78 | 139 | 2.0 | 2.0 | 0.00 | 0.00 | 0.00 | 1019.2 | |
| 20260831203941 | 78 | 131 | 4.0 | 3.0 | 0.00 | 0.00 | 0.00 | 1019.1 | |
| 20260831202937 | 79 | 146 | 5.0 | 6.0 | 0.00 | 0.00 | 0.00 | 1019.0 | |
| 20260831201939 | 78 | 117 | 6.0 | 4.0 | 0.00 | 0.00 | 0.00 | 1018.9 | |
| 20260831200942 | 79 | 146 | 6.0 | 8.0 | 0.00 | 0.00 | 0.00 | 1018.7 | |
| 20260831195938 | 79 | 167 | 6.0 | 4.0 | 0.00 | 0.00 | 0.00 | 1018.5 | |
| 20260831194940 | 79 | 139 | 5.0 | 5.0 | 0.00 | 0.00 | 0.00 | 1018.3 | |
| 20260831193939 | 78 | 111 | 5.0 | 4.0 | 0.00 | 0.00 | 0.00 | 1018.3 | |
| 20260831192936 | 79 | 142 | 8.0 | 5.0 | 0.00 | 0.00 | 0.00 | 1018.1 | |
| 20260831191939 | 79 | 143 | 5.0 | 5.0 | 0.00 | 0.00 | 0.00 | 1017.9 | |
| 20260831190941 | 79 | 186 | 4.0 | 5.0 | 0.00 | 0.00 | 0.00 | 1017.8 | |
| 20260831185933 | 80 | 138 | 6.0 | 4.0 | 0.00 | 0.00 | 0.00 | 1017.6 | |
| 20260831184927 | 80 | 134 | 4.0 | 7.0 | 0.00 | 0.00 | 0.00 | 1017.7 | |
| 20260831183930 | 80 | 169 | 3.0 | 5.0 | 0.00 | 0.00 | 0.00 | 1017.6 | |
| 20260831183008 | 80 | 167 | 7.0 | 8.0 | 0.00 | 0.00 | 0.00 | 1017.4 | |
| 20260831182932 | 80 | 167 | 7.0 | 8.0 | 0.00 | 0.00 | 0.00 | 1017.4 | |
| 20260831181935 | 81 | 121 | 6.0 | 6.0 | 0.00 | 0.00 | 0.00 | 1017.3 | |
| 20260831180937 | 81 | 117 | 6.0 | 8.0 | 0.00 | 0.00 | 0.00 | 1017.3 | |
| 20260831175940 | 81 | 125 | 7.0 | 7.0 | 0.00 | 0.00 | 0.00 | 1017.2 | |
| 20260831174939 | 82 | 110 | 6.0 | 5.0 | 0.00 | 0.00 | 0.00 | 1017.1 | |
| 20260831173933 | 82 | 152 | 4.0 | 4.0 | 0.00 | 0.00 | 0.00 | 1017.1 | |
| 20260831172936 | 83 | 131 | 6.0 | 7.0 | 0.00 | 0.00 | 0.00 | 1017.0 | |
| 20260831171938 | 83 | 162 | 4.0 | 4.0 | 0.00 | 0.00 | 0.00 | 1017.0 | |
| 20260831170941 | 84 | 127 | 6.0 | 5.0 | 0.00 | 0.00 | 0.00 | 1017.0 | |
| 20260831165943 | 84 | 132 | 5.0 | 5.0 | 0.00 | 0.00 | 0.00 | 1017.1 | |
| 20260831164943 | 84 | 232 | 7.0 | 9.0 | 0.00 | 0.00 | 0.00 | 1017.2 | |
| 20260831163945 | 84 | 201 | 8.0 | 13.0 | 0.00 | 0.00 | 0.00 | 1017.2 |